Time,TemperatureF,DewpointF,PressureIn,WindDirection,WindDirectionDegrees,WindSpeedMPH,WindSpeedGustMPH,Humidity,HourlyPrecipIn,Conditions,Clouds,dailyrainin,SoftwareType,DateUTC
2013-05-26 00:03:00,53.0,37.0,-100.00,NNW,337,4.0,6.0,55,0.00,,,0.00,,2013-05-26 04:03:00,
2013-05-26 00:12:00,53.0,37.0,-100.00,NNW,337,4.0,6.0,55,0.00,,,0.00,,2013-05-26 04:12:00,
2013-05-26 00:23:00,51.0,38.0,-100.00,South,169,3.0,4.0,60,0.00,,,0.00,,2013-05-26 04:23:00,
2013-05-26 00:33:00,51.0,38.0,-100.00,South,169,3.0,4.0,60,0.00,,,0.00,,2013-05-26 04:33:00,
2013-05-26 00:42:00,52.0,37.0,-100.00,East,93,1.0,2.0,55,0.00,,,0.00,,2013-05-26 04:42:00,
2013-05-26 00:52:00,52.0,37.0,-100.00,East,93,1.0,2.0,55,0.00,,,0.00,,2013-05-26 04:52:00,
2013-05-26 01:02:00,53.0,37.0,-100.00,North,352,1.0,2.0,55,0.00,,,0.00,,2013-05-26 05:02:00,
2013-05-26 01:12:00,53.0,37.0,-100.00,North,352,1.0,2.0,55,0.00,,,0.00,,2013-05-26 05:12:00,
2013-05-26 01:22:00,49.0,39.0,-100.00,NW,325,2.0,3.0,69,0.00,,,0.00,,2013-05-26 05:22:00,
2013-05-26 01:32:00,49.0,39.0,-100.00,NW,325,2.0,3.0,69,0.00,,,0.00,,2013-05-26 05:32:00,
2013-05-26 01:42:00,47.0,39.0,-100.00,NW,325,3.0,4.0,73,0.00,,,0.00,,2013-05-26 05:42:00,
2013-05-26 01:52:00,47.0,39.0,-100.00,NW,325,3.0,4.0,73,0.00,,,0.00,,2013-05-26 05:52:00,
2013-05-26 02:01:00,50.0,38.0,-100.00,SE,140,3.0,5.0,64,0.00,,,0.00,,2013-05-26 06:01:00,
2013-05-26 02:12:00,50.0,38.0,-100.00,SE,140,3.0,5.0,64,0.00,,,0.00,,2013-05-26 06:12:00,
2013-05-26 02:22:00,51.0,38.0,-100.00,SSE,161,2.0,2.0,61,0.00,,,0.00,,2013-05-26 06:22:00,
2013-05-26 02:32:00,51.0,38.0,-100.00,SSE,161,2.0,2.0,61,0.00,,,0.00,,2013-05-26 06:32:00,
2013-05-26 02:42:00,53.0,37.0,-100.00,South,176,2.0,3.0,55,0.00,,,0.00,,2013-05-26 06:42:00,
2013-05-26 02:52:00,53.0,37.0,-100.00,South,176,2.0,3.0,55,0.00,,,0.00,,2013-05-26 06:52:00,
2013-05-26 03:02:00,49.0,39.0,-100.00,North,8,3.0,6.0,69,0.00,,,0.00,,2013-05-26 07:02:00,
2013-05-26 03:11:00,49.0,39.0,-100.00,North,8,3.0,6.0,69,0.00,,,0.00,,2013-05-26 07:11:00,
2013-05-26 03:22:00,48.0,40.0,-100.00,NNW,347,2.0,3.0,73,0.00,,,0.00,,2013-05-26 07:22:00,
2013-05-26 03:32:00,48.0,40.0,-100.00,NNW,347,2.0,3.0,73,0.00,,,0.00,,2013-05-26 07:32:00,
2013-05-26 03:42:00,48.0,41.0,-100.00,North,3,2.0,4.0,76,0.00,,,0.00,,2013-05-26 07:42:00,
2013-05-26 03:52:00,48.0,41.0,-100.00,North,3,2.0,4.0,76,0.00,,,0.00,,2013-05-26 07:52:00,
2013-05-26 04:01:00,49.0,39.0,-100.00,NNW,335,4.0,5.0,69,0.00,,,0.00,,2013-05-26 08:01:00,
2013-05-26 04:12:00,49.0,39.0,-100.00,NNW,335,4.0,5.0,69,0.00,,,0.00,,2013-05-26 08:12:00,
2013-05-26 04:21:00,51.0,39.0,-100.00,North,1,2.0,5.0,65,0.00,,,0.00,,2013-05-26 08:21:00,
2013-05-26 04:32:00,51.0,39.0,-100.00,North,1,2.0,5.0,65,0.00,,,0.00,,2013-05-26 08:32:00,
2013-05-26 04:42:00,51.0,38.0,-100.00,NE,52,3.0,5.0,61,0.00,,,0.00,,2013-05-26 08:42:00,
2013-05-26 04:53:00,51.0,38.0,-100.00,NE,52,3.0,5.0,61,0.00,,,0.00,,2013-05-26 08:53:00,
2013-05-26 05:01:00,51.0,38.0,-100.00,ENE,62,3.0,4.0,60,0.00,,,0.00,,2013-05-26 09:01:00,
2013-05-26 05:11:00,51.0,38.0,-100.00,ENE,62,3.0,4.0,60,0.00,,,0.00,,2013-05-26 09:11:00,
2013-05-26 05:22:00,52.0,38.0,-100.00,ENE,61,2.0,4.0,59,0.00,,,0.00,,2013-05-26 09:22:00,
2013-05-26 05:33:00,52.0,38.0,-100.00,ENE,61,2.0,4.0,59,0.00,,,0.00,,2013-05-26 09:33:00,
2013-05-26 05:43:00,47.0,41.0,-100.00,South,186,1.0,2.0,77,0.00,,,0.00,,2013-05-26 09:43:00,
2013-05-26 05:53:00,47.0,41.0,-100.00,South,186,1.0,2.0,77,0.00,,,0.00,,2013-05-26 09:53:00,
2013-05-26 06:03:00,49.0,41.0,-100.00,South,169,3.0,4.0,72,0.00,,,0.00,,2013-05-26 10:03:00,
2013-05-26 06:12:00,49.0,41.0,-100.00,South,169,3.0,4.0,72,0.00,,,0.00,,2013-05-26 10:12:00,
2013-05-26 06:23:00,47.0,41.0,-100.00,NNW,336,3.0,4.0,79,0.00,,,0.00,,2013-05-26 10:23:00,
2013-05-26 06:33:00,47.0,41.0,-100.00,NNW,336,3.0,4.0,79,0.00,,,0.00,,2013-05-26 10:33:00,
2013-05-26 06:42:00,47.0,41.0,-100.00,North,360,0.0,0.0,79,0.00,,,0.00,,2013-05-26 10:42:00,
2013-05-26 06:52:00,47.0,41.0,-100.00,North,360,0.0,0.0,79,0.00,,,0.00,,2013-05-26 10:52:00,
2013-05-26 07:03:00,48.0,41.0,-100.00,NE,42,0.0,0.0,76,0.00,,,0.00,,2013-05-26 11:03:00,
2013-05-26 07:11:00,48.0,41.0,-100.00,NE,42,0.0,0.0,76,0.00,,,0.00,,2013-05-26 11:11:00,
2013-05-26 07:22:00,48.0,41.0,-100.00,NE,42,0.0,0.0,76,0.00,,,0.00,,2013-05-26 11:22:00,
2013-05-26 07:32:00,50.0,40.0,-100.00,WNW,291,3.0,4.0,70,0.00,,,0.00,,2013-05-26 11:32:00,
2013-05-26 07:42:00,51.0,41.0,-100.00,NNW,333,2.0,4.0,70,0.00,,,0.00,,2013-05-26 11:42:00,
2013-05-26 07:52:00,51.0,41.0,-100.00,NNW,333,2.0,4.0,70,0.00,,,0.00,,2013-05-26 11:52:00,
2013-05-26 08:02:00,51.0,41.0,-100.00,North,11,2.0,3.0,68,0.00,,,0.00,,2013-05-26 12:02:00,
2013-05-26 08:12:00,51.0,41.0,-100.00,North,11,2.0,3.0,68,0.00,,,0.00,,2013-05-26 12:12:00,
2013-05-26 08:22:00,53.0,40.0,-100.00,NW,325,5.0,7.0,60,0.00,,,0.00,,2013-05-26 12:22:00,
2013-05-26 08:32:00,53.0,40.0,-100.00,NW,325,5.0,7.0,60,0.00,,,0.00,,2013-05-26 12:32:00,
2013-05-26 08:42:00,54.0,40.0,-100.00,NW,319,3.0,5.0,59,0.00,,,0.00,,2013-05-26 12:42:00,
2013-05-26 08:52:00,54.0,40.0,-100.00,NW,319,3.0,5.0,59,0.00,,,0.00,,2013-05-26 12:52:00,
2013-05-26 09:02:00,57.0,36.0,-100.00,WNW,299,4.0,6.0,44,0.00,,,0.00,,2013-05-26 13:02:00,
2013-05-26 09:11:00,57.0,36.0,-100.00,WNW,299,4.0,6.0,44,0.00,,,0.00,,2013-05-26 13:11:00,
2013-05-26 09:22:00,57.0,36.0,-100.00,WNW,299,4.0,6.0,44,0.00,,,0.00,,2013-05-26 13:22:00,
2013-05-26 09:32:00,57.0,35.0,-100.00,NW,325,4.0,7.0,42,0.00,,,0.00,,2013-05-26 13:32:00,
2013-05-26 09:42:00,58.0,35.0,-100.00,NW,311,5.0,8.0,41,0.00,,,0.00,,2013-05-26 13:42:00,
2013-05-26 09:52:00,58.0,35.0,-100.00,NW,311,5.0,8.0,41,0.00,,,0.00,,2013-05-26 13:52:00,
2013-05-26 10:02:00,58.0,32.0,-100.00,NNW,329,4.0,7.0,38,0.00,,,0.00,,2013-05-26 14:02:00,
2013-05-26 10:11:00,58.0,32.0,-100.00,NNW,329,4.0,7.0,38,0.00,,,0.00,,2013-05-26 14:11:00,
2013-05-26 10:22:00,58.0,32.0,-100.00,NNW,329,4.0,7.0,38,0.00,,,0.00,,2013-05-26 14:22:00,
2013-05-26 10:32:00,59.0,32.0,-100.00,NNW,329,6.0,8.0,36,0.00,,,0.00,,2013-05-26 14:32:00,
2013-05-26 10:42:00,60.0,34.0,-100.00,North,356,7.0,9.0,37,0.00,,,0.00,,2013-05-26 14:42:00,
2013-05-26 10:52:00,60.0,34.0,-100.00,North,356,7.0,9.0,37,0.00,,,0.00,,2013-05-26 14:52:00,
2013-05-26 11:02:00,60.0,32.0,-100.00,NNW,340,7.0,11.0,34,0.00,,,0.00,,2013-05-26 15:02:00,
2013-05-26 11:12:00,60.0,32.0,-100.00,NNW,340,7.0,11.0,34,0.00,,,0.00,,2013-05-26 15:12:00,
2013-05-26 11:22:00,61.0,32.0,-100.00,NE,35,2.0,3.0,32,0.00,,,0.00,,2013-05-26 15:22:00,
2013-05-26 11:33:00,61.0,32.0,-100.00,NE,35,2.0,3.0,32,0.00,,,0.00,,2013-05-26 15:33:00,
2013-05-26 11:43:00,63.0,35.0,-100.00,WNW,284,6.0,8.0,35,0.00,,,0.00,,2013-05-26 15:43:00,
2013-05-26 11:53:00,63.0,35.0,-100.00,WNW,284,6.0,8.0,35,0.00,,,0.00,,2013-05-26 15:53:00,
2013-05-26 12:03:00,65.0,41.0,-100.00,NE,45,2.0,3.0,42,0.00,,,0.00,,2013-05-26 16:03:00,
2013-05-26 12:12:00,65.0,41.0,-100.00,NE,45,2.0,3.0,42,0.00,,,0.00,,2013-05-26 16:12:00,
2013-05-26 12:23:00,65.0,41.0,-100.00,NE,45,2.0,3.0,42,0.00,,,0.00,,2013-05-26 16:23:00,
2013-05-26 12:33:00,64.0,35.0,-100.00,North,0,5.0,10.0,34,0.00,,,0.00,,2013-05-26 16:33:00,
2013-05-26 12:42:00,64.0,36.0,-100.00,NE,42,4.0,7.0,35,0.00,,,0.00,,2013-05-26 16:42:00,
2013-05-26 12:52:00,64.0,36.0,-100.00,NE,42,4.0,7.0,35,0.00,,,0.00,,2013-05-26 16:52:00,
2013-05-26 13:02:00,65.0,33.0,-100.00,North,3,4.0,10.0,31,0.00,,,0.00,,2013-05-26 17:02:00,
2013-05-26 13:11:00,65.0,33.0,-100.00,North,3,4.0,10.0,31,0.00,,,0.00,,2013-05-26 17:11:00,
2013-05-26 13:23:00,65.0,36.0,-100.00,NNW,340,5.0,7.0,34,0.00,,,0.00,,2013-05-26 17:23:00,
2013-05-26 13:32:00,65.0,36.0,-100.00,NNW,340,5.0,7.0,34,0.00,,,0.00,,2013-05-26 17:32:00,
2013-05-26 13:42:00,67.0,35.0,-100.00,NE,40,2.0,4.0,31,0.00,,,0.00,,2013-05-26 17:42:00,
2013-05-26 13:52:00,67.0,35.0,-100.00,NE,40,2.0,4.0,31,0.00,,,0.00,,2013-05-26 17:52:00,
2013-05-26 14:01:00,67.0,35.0,-100.00,NE,40,2.0,4.0,31,0.00,,,0.00,,2013-05-26 18:01:00,
2013-05-26 14:12:00,68.0,33.0,-100.00,WNW,291,4.0,9.0,27,0.00,,,0.00,,2013-05-26 18:12:00,
2013-05-26 14:22:00,68.0,36.0,-100.00,NNE,13,7.0,13.0,31,0.00,,,0.00,,2013-05-26 18:22:00,
2013-05-26 14:32:00,68.0,36.0,-100.00,NNE,13,7.0,13.0,31,0.00,,,0.00,,2013-05-26 18:32:00,
2013-05-26 14:42:00,69.0,33.0,-100.00,NNW,330,4.0,7.0,26,0.00,,,0.00,,2013-05-26 18:42:00,
2013-05-26 14:52:00,69.0,33.0,-100.00,NNW,330,4.0,7.0,26,0.00,,,0.00,,2013-05-26 18:52:00,
2013-05-26 15:01:00,69.0,30.0,-100.00,NW,318,5.0,7.0,23,0.00,,,0.00,,2013-05-26 19:01:00,
2013-05-26 15:11:00,69.0,30.0,-100.00,NW,318,5.0,7.0,23,0.00,,,0.00,,2013-05-26 19:11:00,
2013-05-26 15:22:00,70.0,31.0,-100.00,WNW,301,5.0,9.0,23,0.00,,,0.00,,2013-05-26 19:22:00,
2013-05-26 15:32:00,70.0,31.0,-100.00,WNW,301,5.0,9.0,23,0.00,,,0.00,,2013-05-26 19:32:00,
2013-05-26 15:42:00,71.0,33.0,-100.00,NNW,333,5.0,7.0,24,0.00,,,0.00,,2013-05-26 19:42:00,
2013-05-26 15:52:00,71.0,33.0,-100.00,NNW,333,5.0,7.0,24,0.00,,,0.00,,2013-05-26 19:52:00,
2013-05-26 16:02:00,71.0,33.0,-100.00,NNW,333,5.0,7.0,24,0.00,,,0.00,,2013-05-26 20:02:00,
2013-05-26 16:11:00,71.0,28.0,-100.00,West,268,5.0,9.0,20,0.00,,,0.00,,2013-05-26 20:11:00,
2013-05-26 16:22:00,71.0,31.0,-100.00,NW,323,8.0,13.0,23,0.00,,,0.00,,2013-05-26 20:22:00,
2013-05-26 16:32:00,71.0,31.0,-100.00,NW,323,8.0,13.0,23,0.00,,,0.00,,2013-05-26 20:32:00,
2013-05-26 16:42:00,72.0,29.0,-100.00,NW,304,5.0,8.0,20,0.00,,,0.00,,2013-05-26 20:42:00,
2013-05-26 16:53:00,72.0,29.0,-100.00,NW,304,5.0,8.0,20,0.00,,,0.00,,2013-05-26 20:53:00,
2013-05-26 17:02:00,72.0,33.0,-100.00,NW,308,7.0,11.0,24,0.00,,,0.00,,2013-05-26 21:02:00,
2013-05-26 17:12:00,72.0,33.0,-100.00,NW,308,7.0,11.0,24,0.00,,,0.00,,2013-05-26 21:12:00,
2013-05-26 17:22:00,72.0,33.0,-100.00,NW,308,7.0,11.0,24,0.00,,,0.00,,2013-05-26 21:22:00,
2013-05-26 17:33:00,71.0,34.0,-100.00,NW,311,5.0,9.0,25,0.00,,,0.00,,2013-05-26 21:33:00,
2013-05-26 17:43:00,72.0,33.0,-100.00,NW,304,4.0,9.0,24,0.00,,,0.00,,2013-05-26 21:43:00,
2013-05-26 17:53:00,72.0,33.0,-100.00,NW,304,4.0,9.0,24,0.00,,,0.00,,2013-05-26 21:53:00,
2013-05-26 18:03:00,71.0,29.0,-100.00,NW,313,5.0,8.0,20,0.00,,,0.00,,2013-05-26 22:03:00,
2013-05-26 18:12:00,71.0,29.0,-100.00,NW,313,5.0,8.0,20,0.00,,,0.00,,2013-05-26 22:12:00,
2013-05-26 18:23:00,71.0,29.0,-100.00,NW,313,5.0,8.0,20,0.00,,,0.00,,2013-05-26 22:23:00,
2013-05-26 18:33:00,71.0,31.0,-100.00,NW,316,5.0,8.0,22,0.00,,,0.00,,2013-05-26 22:33:00,
2013-05-26 18:42:00,71.0,31.0,-100.00,NW,316,5.0,8.0,22,0.00,,,0.00,,2013-05-26 22:42:00,
2013-05-26 18:53:00,71.0,32.0,-100.00,NW,318,4.0,7.0,24,0.00,,,0.00,,2013-05-26 22:53:00,
2013-05-26 19:02:00,70.0,32.0,-100.00,NW,320,6.0,9.0,24,0.00,,,0.00,,2013-05-26 23:02:00,
2013-05-26 19:12:00,70.0,32.0,-100.00,NW,320,6.0,9.0,24,0.00,,,0.00,,2013-05-26 23:12:00,
2013-05-26 19:22:00,70.0,33.0,-100.00,NW,311,5.0,8.0,25,0.00,,,0.00,,2013-05-26 23:22:00,
2013-05-26 19:32:00,70.0,33.0,-100.00,NW,311,5.0,8.0,25,0.00,,,0.00,,2013-05-26 23:32:00,
2013-05-26 19:43:00,69.0,31.0,-100.00,NW,316,6.0,11.0,25,0.00,,,0.00,,2013-05-26 23:43:00,
2013-05-26 19:52:00,69.0,31.0,-100.00,NW,316,6.0,11.0,25,0.00,,,0.00,,2013-05-26 23:52:00,
2013-05-26 20:02:00,68.0,31.0,-100.00,NW,323,6.0,9.0,25,0.00,,,0.00,,2013-05-27 00:02:00,
2013-05-26 20:11:00,68.0,31.0,-100.00,NW,323,6.0,9.0,25,0.00,,,0.00,,2013-05-27 00:11:00,
2013-05-26 20:22:00,66.0,33.0,-100.00,NW,315,4.0,6.0,29,0.00,,,0.00,,2013-05-27 00:22:00,
2013-05-26 20:32:00,66.0,33.0,-100.00,NW,315,4.0,6.0,29,0.00,,,0.00,,2013-05-27 00:32:00,
2013-05-26 20:42:00,66.0,33.0,-100.00,NW,315,4.0,6.0,29,0.00,,,0.00,,2013-05-27 00:42:00,
2013-05-26 20:52:00,65.0,33.0,-100.00,NW,313,3.0,4.0,30,0.00,,,0.00,,2013-05-27 00:52:00,
2013-05-26 21:01:00,63.0,33.0,-100.00,WNW,288,2.0,2.0,32,0.00,,,0.00,,2013-05-27 01:01:00,
2013-05-26 21:11:00,63.0,33.0,-100.00,WNW,288,2.0,2.0,32,0.00,,,0.00,,2013-05-27 01:11:00,
2013-05-26 21:22:00,63.0,33.0,-100.00,WNW,288,2.0,2.0,32,0.00,,,0.00,,2013-05-27 01:22:00,
2013-05-26 21:32:00,62.0,34.0,-100.00,SSW,206,2.0,3.0,35,0.00,,,0.00,,2013-05-27 01:32:00,
2013-05-26 21:42:00,62.0,32.0,-100.00,South,172,0.0,1.0,32,0.00,,,0.00,,2013-05-27 01:42:00,
2013-05-26 21:52:00,62.0,32.0,-100.00,South,172,0.0,1.0,32,0.00,,,0.00,,2013-05-27 01:52:00,
2013-05-26 22:02:00,59.0,38.0,-100.00,NNW,339,1.0,2.0,45,0.00,,,0.00,,2013-05-27 02:02:00,
2013-05-26 22:11:00,59.0,38.0,-100.00,NNW,339,1.0,2.0,45,0.00,,,0.00,,2013-05-27 02:11:00,
2013-05-26 22:22:00,58.0,36.0,-100.00,NE,44,1.0,2.0,44,0.00,,,0.00,,2013-05-27 02:22:00,
2013-05-26 22:32:00,58.0,36.0,-100.00,NE,44,1.0,2.0,44,0.00,,,0.00,,2013-05-27 02:32:00,
2013-05-26 22:42:00,56.0,38.0,-100.00,SW,232,1.0,1.0,51,0.00,,,0.00,,2013-05-27 02:42:00,
2013-05-26 22:52:00,56.0,38.0,-100.00,SW,232,1.0,1.0,51,0.00,,,0.00,,2013-05-27 02:52:00,
2013-05-26 23:02:00,56.0,35.0,-100.00,NNE,17,2.0,3.0,44,0.00,,,0.00,,2013-05-27 03:02:00,
2013-05-26 23:11:00,56.0,35.0,-100.00,NNE,17,2.0,3.0,44,0.00,,,0.00,,2013-05-27 03:11:00,
2013-05-26 23:21:00,56.0,34.0,-100.00,NNW,329,1.0,2.0,44,0.00,,,0.00,,2013-05-27 03:21:00,
2013-05-26 23:33:00,56.0,34.0,-100.00,NNW,329,1.0,2.0,44,0.00,,,0.00,,2013-05-27 03:33:00,
2013-05-26 23:43:00,55.0,36.0,-100.00,North,4,2.0,3.0,49,0.00,,,0.00,,2013-05-27 03:43:00,
2013-05-26 23:53:00,55.0,36.0,-100.00,North,4,2.0,3.0,49,0.00,,,0.00,,2013-05-27 03:53:00,